Regional Weather Roundup
Issued by NWS

Home | Current Version | Previous Version | Text Only | Print | Product List | Glossary Off
Versions: 1 2 3 4 5 6 7 8 9 10 11 12 13 14 15 16 17 18 19 20 21 22 23 24 25 26 27 28 29 30 31 32 33 34 35 36 37 38 39 40 41 42 43 44 45 46 47 48 49 50

000
ASUS45 KBOU 261007
RWRCO

WEATHER ROUNDUP FOR COLORADO
NATIONAL WEATHER SERVICE DENVER/BOULDER CO
400 AM MDT FRI AUG 26 2016

NOTE: "FAIR" INDICATES FEW OR NO CLOUDS BELOW 12000 FEET WITH NO
SIGNIFICANT WEATHER AND/OR OBSTRUCTIONS TO VISIBILITY.

COZ001>005-013-030-031-261100-
...NORTHWEST COLORADO...

CITY           SKY/WX    TMP DP  RH WIND       PRES   REMARKS
CRAIG          FAIR      46  39  76 SW3       30.22F
HAYDEN         FAIR      48  36  61 E6        30.24S
MEEKER         FAIR      43  38  82 S3        30.23F
MOUNT WERNER   NOT AVBL
STEAMBOAT SPGS FAIR      46  38  73 CALM      30.25F
WALDEN         FAIR      43  36  75 SE5       30.31F
$$

COZ006>008-011-261100-
...WEST CENTRAL VALLEYS...

CITY           SKY/WX    TMP DP  RH WIND       PRES   REMARKS
GRAND JUNCTION FAIR      56  48  74 E12       30.17F
MONTROSE       FAIR      52  46  80 S6        30.25F
EAGLE          FAIR      46  46 100 NE3       30.30F
RIFLE          FAIR      50  49  96 SE3       30.23F
DELTA          NOT AVBL
NUCLA          FAIR     N/A N/A N/A E3        30.27F
$$

COZ017>023-064>068-261100-
...SOUTHWEST COLORADO...

CITY           SKY/WX    TMP DP  RH WIND       PRES   REMARKS
DURANGO        CLOUDY    52  46  80 SE5       30.26S
CORTEZ         FAIR      52  50  93 W5        30.23S
PAGOSA SPRINGS FAIR      49  48  95 CALM      30.32S
TELLURIDE      FAIR      43  42  95 CALM      30.39F
WOLF CREEK PAS CLOUDY    34  34 100 SW14G23   30.51F WCI  24
$$

COZ009-010-012-014-032>034-037-058>063-261100-
...CENTRAL COLORADO...

CITY           SKY/WX    TMP DP  RH WIND       PRES   REMARKS
ASPEN          FAIR      42  40  92 S5        30.30F
BUENA VISTA    CLOUDY    46  43  91 CALM      30.32F
COPPER MTN     FAIR      37  32  81 CALM      30.47F
BERTHOUD PASS  CLOUDY    32  18  55 NW10      30.48F WCI  24
COTTONWOOD PAS CLOUDY    45  41  87 CALM      30.39F
GUNNISON       CLOUDY    48  45  87 CALM      30.36S
KREMMLING      FAIR      45  37  76 E3        30.30F
LEADVILLE      CLOUDY    38  36  92 CALM      30.38F
MONARCH PASS   FOG       34  32  93 SW13      30.58F VSB<1/4 WCI  25
SALIDA         MOCLDY    48  46  92 W3        30.37F
SUNLIGHT       FAIR      37  37 100 NE9       30.45F FOG
WILKERSON PASS CLOUDY    36  34  93 SW6       30.46F FOG
$$

COZ069>075-261100-
...SAN LUIS VALLEY/SANGRE DE CRISTO MOUNTAINS...

CITY           SKY/WX    TMP DP  RH WIND       PRES   REMARKS
ALAMOSA        FAIR      44  42  93 SW6       30.30F
LA VETA PASS   FAIR      43  37  81 S9G17     30.42S
SAGUACHE       FAIR      45  41  87 NW12      30.33S
$$

COZ035-036-038>040-261100-
...NORTHERN COLORADO FRONT RANGE...

CITY           SKY/WX    TMP DP  RH WIND       PRES   REMARKS
DENVER INTL AP CLOUDY    55  47  74 S6        30.15F
DMNS CITY PARK   N/A     55  48  77 N2G8      30.14F
AURORA         MOCLDY    56  47  71 S13       30.16F
FRONT RANGE AP NOT AVBL
ERIE MUNI ARPT CLOUDY    57  51  78 CALM      30.15S
BOULDER MUN AP NOT AVBL
CENTENNIAL     MOCLDY    55  45  68 SE7       30.17F
BROOMFIELD     MOCLDY    55  52  88 CALM      30.17S
FORT COLLINS   FAIR      54  50  87 E10       30.16S
LONGMONT       MOCLDY    57  52  83 E6        30.17R
$$

COZ041-046-047-076>085-087-088-261100-
...PIKES PEAK/PALMER DIVIDE AND SOUTHERN FOOTHILLS...

CITY           SKY/WX    TMP DP  RH WIND       PRES   REMARKS
COLO. SPRINGS  MOCLDY    53  47  79 SE9       30.23F
A. F. ACADEMY  MOCLDY    48  46  90 NW6       30.23F
SCHRIEVER AFB  NOT AVBL
ELLICOTT       NOT AVBL
FALCON         FAIR      50  49  97 S6        30.26F
FORT CARSON    FAIR      53  48  84 SE7       30.20F
LIMON          CLOUDY    57  55  93 S9        30.21F
MONUMENT HILL  MOCLDY    46  45  93 S9        30.25F
TRINIDAD       FAIR      54  51  90 CALM      30.22F
$$

COZ042>045-048>051-090-091-261100-
...NORTHEAST COLORADO...

CITY           SKY/WX    TMP DP  RH WIND       PRES   REMARKS
GREELEY ARPT   FAIR      52  48  87 E3        30.16S
AKRON          FAIR      57  52  83 SE9       30.18F
BURLINGTON     MOCLDY    53  49  86 S3        30.20R
WRAY           CLOUDY    55  48  76 SE5       30.19S
STERLING       CLOUDY    61  54  77 S12       30.15F
HOLYOKE        NOT AVBL
FORT MORGAN    FAIR      54  51  91 SE5       30.16F
$$

COZ086-089-092>099-261100-
...SOUTHEAST COLORADO...

CITY           SKY/WX    TMP DP  RH WIND       PRES   REMARKS
PUEBLO         CLOUDY    58  53  84 E7        30.17F
LA JUNTA       CLOUDY    60  57  89 NW5       30.17F
LAMAR          MOCLDY    63  58  83 E7        30.15S
SPRINGFIELD      N/A     58  58 100 S7        30.16F
$$



USA.gov is the U.S. government's official web portal to all federal, state and local government web resources and services.